User: anonymous   Login
Location: Kernascl�den
(48.0062°N, 3.3198°W)
Time: 05:12:43
(UTC+00:00)
Language:

CZ-2D R/B - Orbit

View from above orbital plane
View from above orbital plane
View from above satellite
View from above satellite

Ground track
Ground track

The orbit data is extracted from the following two-line orbital elements,

1 28738U 05024B   21112.53602218  .00000687  00000-0  43193-4 0  9998
2 28738  97.3647 130.5428 0011516 187.0391 173.0680 15.12357043868112
Epoch (UTC): 22 April 2021 12:51:52
Eccentricity: 0.0011516
inclination: 97.3647°
perigee height: 521 km
apogee height: 537 km
right ascension of ascending node: 130.5428°
argument of perigee: 187.0391°
revolutions per day: 15.12357043
mean anomaly at epoch: 173.0680°
orbit number at epoch: 86811

The dashed part of the orbit path shows where the satellite is in the earth's shadow,  

DLR